This is the latest recevied weather packets stored in our database for station/object JR5VPD-10. If no packets are shown the sender has not sent any weather packets the latest 10 day(s).
| Time | Temp. | Humidity | Pressure | Rain* | Wind** | Luminosity | Snow |
|---|---|---|---|---|---|---|---|
| 1787477772 | 31.67° C | 71% | 1010.2 hPa | 0 mm | 0 m/s | - | - |
| 1787475972 | 31.67° C | 72% | 1010.1 hPa | 0 mm | 0 m/s | - | - |
| 1787474172 | 31.67° C | 70% | 1010 hPa | 0 mm | 0 m/s | - | - |
| 1787472372 | 31.67° C | 65% | 1009.9 hPa | 0 mm | 0 m/s | - | - |
| 1787470572 | 32.78° C | 64% | 1009.7 hPa | 0 mm | 0 m/s | - | - |
| 1787468772 | 32.78° C | 63% | 1010 hPa | 0 mm | 0 m/s | - | - |
| 1787466972 | 32.78° C | 60% | 1010.1 hPa | 0 mm | 0 m/s | - | - |
| 1787465172 | 32.78° C | 62% | 1010.2 hPa | 0 mm | 0 m/s | - | - |
| 1787463372 | 32.78° C | 64% | 1010.7 hPa | 0 mm | 0 m/s | - | - |
| 1787461572 | 32.78° C | 67% | 1010.9 hPa | 0 mm | 0 m/s | - | - |
| 1787459772 | 32.78° C | 68% | 1011 hPa | 0 mm | 0 m/s | - | - |
| 1787457972 | 31.67° C | 72% | 1011.4 hPa | 0 mm | 0 m/s | - | - |
| 1787456172 | 31.67° C | 66% | 1011.5 hPa | 0 mm | 0 m/s | - | - |
| 1787454372 | 31.67° C | 67% | 1011.6 hPa | 0 mm | 0 m/s | - | - |
| 1787452572 | 32.78° C | 66% | 1012.1 hPa | 0 mm | 0 m/s | - | - |
| 1787450772 | 31.67° C | 72% | 1012.4 hPa | 0 mm | 0 m/s | - | - |
| 1787448972 | 30.56° C | 80% | 1012.4 hPa | 0 mm | 0 m/s | - | - |
| 1787447172 | 30.56° C | 83% | 1012.7 hPa | 0 mm | 0 m/s | - | - |
| 1787445372 | 30.56° C | 85% | 1012.5 hPa | 0 mm | 0 m/s | - | - |
| 1787443572 | 30.56° C | 86% | 1012.3 hPa | 0 mm | 0 m/s | - | - |
| 1787441772 | 30° C | 89% | 1012.1 hPa | 0 mm | 0 m/s | - | - |
| 1787439972 | 28.89° C | 94% | 1012.3 hPa | 0 mm | 0 m/s | - | - |
| 1787438172 | 28.89° C | 92% | 1012.3 hPa | 0 mm | 0 m/s | - | - |
| 1787436372 | 28.89° C | 86% | 1012.5 hPa | 0 mm | 0 m/s | - | - |
| 1787434572 | 28.89° C | 87% | 1012.5 hPa | 0 mm | 0 m/s | - | - |
* Rain latest hour (hover to see other rain measurements)
** Current wind speed in m/s (hover to see current wind gust speed)